COSMOS 1174

Satellite information

Favourite Embed

Satellite Type and Status

PAYLOADIN ORBIT

Key statistics

Satellite COSMOS 1174 at a glance.

Uptime

16577

Days in orbit

Revolutions

≈ 14.5

Per day

Orbit

LEO

Low Earth Orbit

Inclination

66.1

Latest

Satellite identification and parameters

Extended collection of information and parameters for COSMOS 1174.

Object identification

Identified? True

Debris? False

Object name: COSMOS 1174

International designator: 1980-030A

Object number (NORAD): 11765

Object ID (CCSDS): 11765

Country: COMMONWEALTH OF INDEPENDENT STATES (CIS)

Current information (Y/N): Y

RCS size: LARGE

Orbital parameters

Period: 98.969 minutes

Inclination: 66.0825 deg

SMA: 7087.516 km

Apoapsis: 1061.275 km

Periapsis: 357.488 km

RAAN: 304.6471 deg

Eccentricy: 0.0496498

Argument of periapsis: 282.6172 deg

Mean anomaly: 71.9865 deg

Mean motion: 14.54995494 rev/day

Mean motion (dot): 0.00005209 rev/day2

B* drag term: 0.00021752832 1/REarth

Two-line elements (TLE)

Creation date: Sept. 6, 2025, 2:09 a.m.

Reference frame: TEME

Reference center: EARTH

Epoch: Sept. 5, 2025, 10:01 p.m. UTC

TLE line 0: 0 COSMOS 1174

TLE line 1: 1 11765U 80030A 25248.91780977 .00005209 00000-0 21753-3 0 9997

TLE line 2: 2 11765 66.0825 304.6471 0496498 282.6172 71.9865 14.54995494337522

Live tracking on map

Real-time ground track for satellite COSMOS 1174.

In-orbit conjunctions

A list of the most updated potential collisions computed for object COSMOS 1174.

Target Orbit TCA Probability of collision Miss distance Type
FENGYUN 1C DEB SSO 2025-03-04 22:42:49 0.0001620704 429.0 (m) DEBRIS
NOAA 16 DEB SSO 2024-10-04 23:43:55 0.0001007982 862.0 (m) DEBRIS

Associated space launch

Second generation ASAT satellite

COSMOS 1174 was lifted into orbit during the mission ‘Tsiklon-2 | IS-A 10’, on board a Tsiklon-2 space rocket.

The launch took place on April 18, 1980, 12:51 a.m. from 90.

For more information about the launch, click the button.

Launch to space Tsiklon-2 | IS-A 10
Tsiklon-2 | IS-A 10

Agency: N/A

Status: Launch Successful

Launch date: April 18, 1980, 12:51 a.m. UTC

Rocket: Tsiklon-2

Launch pad: 90

Location: Baikonur Cosmodrome, Republic of Kazakhstan

...

Latest news about this satellite

There are no fresh news available about this satellite. Check back as we update our databases every day.


Newsletter sign-up

Weekly statistics, charts and insights to help you stay on top of the space industry.